TimeCET,TemperatureF,Dew PointF,Humidity,Sea Level PressureIn,VisibilityMPH,Wind Direction,Wind SpeedMPH,Gust SpeedMPH,PrecipitationIn,Events,Conditions,WindDirDegrees,DateUTC
12:45 AM,44.6,44.6,100,30.27,4.3,ESE,6.9,-,N/A,,Overcast,120,2012-11-22 23:45:00
1:00 AM,45,44,93,30.29,4,ESE,6.7,,,,Partly Cloudy,120,2012-11-23 00:00:00
1:45 AM,44.6,42.8,93,30.27,4.3,ESE,5.8,-,N/A,,Overcast,120,2012-11-23 00:45:00
3:45 AM,44.6,41.0,87,30.27,5.0,SE,2.3,-,N/A,,Overcast,130,2012-11-23 02:45:00
4:45 AM,44.6,41.0,87,30.24,6.2,ESE,4.6,-,N/A,,Overcast,120,2012-11-23 03:45:00
5:15 AM,44.6,41.0,87,30.24,6.2,ESE,5.8,-,N/A,,Overcast,120,2012-11-23 04:15:00
5:45 AM,42.8,41.0,93,30.24,6.2,SE,4.6,-,N/A,,Overcast,140,2012-11-23 04:45:00
6:15 AM,42.8,41.0,93,30.24,6.2,SE,4.6,-,N/A,,Overcast,130,2012-11-23 05:15:00
6:45 AM,42.8,41.0,93,30.27,5.0,SE,4.6,-,N/A,,Overcast,130,2012-11-23 05:45:00
7:00 AM,44,41,87,30.27,5,SE,4.5,,,,Partly Cloudy,130,2012-11-23 06:00:00
7:15 AM,42.8,41.0,93,30.27,5.0,SE,3.5,-,N/A,,Overcast,130,2012-11-23 06:15:00
7:45 AM,44.6,41.0,87,30.27,5.0,SE,2.3,-,N/A,,Overcast,130,2012-11-23 06:45:00
8:15 AM,44.6,41.0,87,30.27,5.0,SE,4.6,-,N/A,,Overcast,130,2012-11-23 07:15:00
8:45 AM,44.6,42.8,93,30.27,-9999.0,SSE,4.6,-,N/A,,Clear,150,2012-11-23 07:45:00
9:15 AM,44.6,41.0,87,30.27,-9999.0,SSE,5.8,-,N/A,,Clear,150,2012-11-23 08:15:00
9:45 AM,46.4,42.8,87,30.27,-9999.0,SE,6.9,-,N/A,,Clear,140,2012-11-23 08:45:00
10:15 AM,46.4,41.0,81,30.27,6.2,South,6.9,-,N/A,,Overcast,170,2012-11-23 09:15:00
10:45 AM,46.4,42.8,87,30.27,6.2,South,6.9,-,N/A,,Overcast,170,2012-11-23 09:45:00
11:15 AM,46.4,42.8,87,30.24,6.2,South,6.9,-,N/A,,Overcast,170,2012-11-23 10:15:00
11:45 AM,46.4,42.8,87,30.24,6.2,South,5.8,-,N/A,,Overcast,170,2012-11-23 10:45:00
12:15 PM,48.2,42.8,82,30.24,6.2,SSE,4.6,-,N/A,,Overcast,160,2012-11-23 11:15:00
12:45 PM,48.2,42.8,82,30.24,6.2,SSE,4.6,-,N/A,,Mostly Cloudy,150,2012-11-23 11:45:00
1:00 PM,48,43,76,30.24,7,SSE,4.5,,,,Partly Cloudy,150,2012-11-23 12:00:00
1:15 PM,48.2,42.8,82,30.24,6.2,South,3.5,-,N/A,,Mostly Cloudy,170,2012-11-23 12:15:00
1:45 PM,48.2,42.8,82,30.24,6.2,SE,3.5,-,N/A,,Mostly Cloudy,140,2012-11-23 12:45:00
2:15 PM,48.2,42.8,82,30.24,6.2,SE,2.3,-,N/A,,Mostly Cloudy,130,2012-11-23 13:15:00
2:45 PM,48.2,42.8,82,30.24,-9999.0,ESE,3.5,-,N/A,,Clear,110,2012-11-23 13:45:00
3:15 PM,48.2,42.8,82,30.24,-9999.0,ESE,1.2,-,N/A,,Clear,110,2012-11-23 14:15:00
3:45 PM,48.2,42.8,82,30.24,-9999.0,East,3.5,-,N/A,,Clear,100,2012-11-23 14:45:00
4:15 PM,48.2,42.8,82,30.24,-9999.0,ESE,4.6,-,N/A,,Clear,110,2012-11-23 15:15:00
4:45 PM,48.2,42.8,82,30.24,-9999.0,East,1.2,-,N/A,,Clear,100,2012-11-23 15:45:00
5:15 PM,48.2,42.8,82,30.24,-9999.0,East,2.3,-,N/A,,Clear,90,2012-11-23 16:15:00
5:45 PM,48.2,42.8,82,30.24,-9999.0,East,3.5,-,N/A,,Clear,90,2012-11-23 16:45:00
6:15 PM,48.2,42.8,82,30.24,-9999.0,East,2.3,-,N/A,,Clear,90,2012-11-23 17:15:00
6:45 PM,48.2,42.8,82,30.24,6.2,East,2.3,-,N/A,,Overcast,80,2012-11-23 17:45:00
7:00 PM,47,43,82,30.26,6,East,2.2,,,,Partly Cloudy,80,2012-11-23 18:00:00
7:15 PM,46.4,44.6,93,30.27,6.2,North,1.2,-,N/A,,Overcast,350,2012-11-23 18:15:00
7:45 PM,46.4,44.6,93,30.27,6.2,Calm,Calm,-,N/A,,Overcast,0,2012-11-23 18:45:00
8:15 PM,46.4,42.8,87,30.24,6.2,East,3.5,-,N/A,,Mostly Cloudy,100,2012-11-23 19:15:00
8:45 PM,46.4,42.8,87,30.27,6.2,ESE,1.2,-,N/A,,Mostly Cloudy,120,2012-11-23 19:45:00
9:45 PM,46.4,44.6,93,30.27,5.0,Calm,Calm,-,N/A,,Overcast,0,2012-11-23 20:45:00
10:45 PM,46.4,44.6,93,30.27,4.3,SE,1.2,-,N/A,,Overcast,130,2012-11-23 21:45:00
11:45 PM,46.4,42.8,87,30.27,3.7,SE,2.3,-,N/A,,Overcast,140,2012-11-23 22:45:00